Ketchikan, AK

10:36 PM AKDT on September 20, 2018 (GMT -0800)
Ketchikan International

Weather History for PAKT - August, 2018

Change the Weather History Date:

Tuesday, August 21, 2018

  Actual Average Record
Temperature  
Mean Temperature 65 °F -  
Max Temperature 75 °F 63 °F 80 °F (1977)
Min Temperature 57 °F 50 °F 40 °F (1964)
Growing Degree Days 15 (Base 50)    
Moisture  
Dew Point 56 °F    
Average Humidity 75    
Maximum Humidity 93    
Minimum Humidity 53    
Precipitation  
Precipitation 0.19 in - - ()
Sea Level Pressure  
Sea Level Pressure 30.07 in    
Wind  
Wind Speed 7 mph (NW)    
Max Wind Speed 15 mph    
Max Gust Speed -    
Visibility 8 miles    
Events Rain    
Averages and records for this station are not official NWS values.
T = Trace of Precipitation, MM = Missing Value Source: NWS Daily Summary

Daily Weather History Graph

Daily Weather History Graph

Search for Another Location

Airport or City:

Astronomy

Aug. 21, 2018 Rise Set
Actual Time 5:31 AM AKDT 8:06 PM AKDT
Civil Twilight 4:50 AM AKDT 8:47 PM AKDT
Nautical Twilight 3:57 AM AKDT 9:39 PM AKDT
Astronomical Twilight 2:50 AM AKDT 10:45 PM AKDT
Moon 5:45 PM AKDT 12:46 AM AKDT
Length of Visible Light 15h 56m
Length of Day
14h 34m
Waxing Gibbous, 81% of the Moon is Illuminated
Aug 21
Waxing Gibbous
Aug 26
Full
Sep 2
Last Quarter
Sep 9
New
Sep 16
First Quarter

Hourly Weather History & Observations

Time (AKDT) Temp. Dew Point Humidity Pressure Visibility Wind Dir Wind Speed Gust Speed Precip Events Conditions
12:53 AM 62.1 °F 53.1 °F 72% 30.13 in 10.0 mi WNW 8.1 mph - N/A   Clear
1:53 AM 61.0 °F 53.1 °F 75% 30.12 in 10.0 mi NW 8.1 mph - N/A   Clear
2:53 AM 61.0 °F 54.0 °F 78% 30.12 in 10.0 mi WNW 8.1 mph - N/A   Clear
3:53 AM 60.1 °F 54.0 °F 80% 30.11 in 10.0 mi NW 9.2 mph - N/A   Clear
4:53 AM 59.0 °F 54.0 °F 83% 30.09 in 10.0 mi WNW 6.9 mph - N/A   Clear
5:53 AM 57.9 °F 53.1 °F 84% 30.09 in 10.0 mi WNW 4.6 mph - N/A   Clear
6:08 AM 57.9 °F 54.0 °F 87% 30.09 in 10.0 mi West 5.8 mph - N/A   Clear
6:53 AM 60.1 °F 55.0 °F 83% 30.10 in 10.0 mi WNW 3.5 mph - N/A   Clear
7:53 AM 62.6 °F 55.4 °F 77% 30.10 in 10.0 mi NW 6.9 mph - N/A   Clear
8:53 AM 64.4 °F 55.4 °F 73% 30.10 in 10.0 mi NW 5.8 mph - N/A   Clear
9:53 AM 66.2 °F 55.4 °F 68% 30.09 in 10.0 mi Calm Calm - N/A   Clear
10:53 AM 69.8 °F 55.4 °F 60% 30.09 in 10.0 mi ENE 5.8 mph - N/A   Clear
11:53 AM 73.4 °F 55.4 °F 53% 30.09 in 10.0 mi ESE 11.5 mph - N/A   Clear
12:53 PM 73.4 °F 55.4 °F 53% 30.08 in 10.0 mi ESE 11.5 mph - N/A   Clear
1:53 PM 73.4 °F 55.4 °F 53% 30.07 in 10.0 mi ESE 13.8 mph - N/A   Clear
2:53 PM 72.0 °F 55.0 °F 55% 30.07 in 10.0 mi ESE 15.0 mph - N/A   Clear
3:53 PM 71.6 °F 57.2 °F 60% 30.06 in 10.0 mi ESE 11.5 mph - N/A   Clear
4:53 PM 71.6 °F 55.4 °F 57% 30.05 in 10.0 mi ESE 13.8 mph - N/A   Clear
5:53 PM 68.0 °F 55.4 °F 64% 30.04 in 10.0 mi SE 11.5 mph - N/A   Clear
6:53 PM 64.0 °F 55.9 °F 75% 30.03 in 10.0 mi SE 10.4 mph - N/A   Clear
7:53 PM 62.1 °F 55.9 °F 80% 30.03 in 10.0 mi SE 6.9 mph - N/A   Mostly Cloudy
8:53 PM 61.0 °F 55.9 °F 83% 30.04 in 10.0 mi SSE 4.6 mph - N/A   Overcast
9:53 PM 60.1 °F 57.0 °F 90% 30.04 in 2.5 mi Calm Calm - 0.02 in Rain Light Rain
10:46 PM 60.1 °F 57.9 °F 93% 30.03 in 2.0 mi NW 3.5 mph - 0.06 in Rain Rain
10:53 PM 60.1 °F 57.9 °F 93% 30.04 in 2.0 mi NW 3.5 mph - 0.10 in Rain Heavy Rain
11:02 PM 60.1 °F 57.9 °F 93% 30.03 in 1.8 mi Variable 3.5 mph - 0.04 in Rain Heavy Rain
11:14 PM 60.1 °F 57.9 °F 93% 30.03 in 2.5 mi Calm Calm - 0.06 in Rain Light Rain
11:53 PM 60.1 °F 57.9 °F 93% 30.03 in 6.0 mi Calm Calm - 0.07 in   Overcast